Theta_e
294 288 286 287 290 291 291 290 292 292 291 288 286 284 286 285 287 289 291 292 288 289 289 290 291 291 292 293 295 296 295 294 294 293 294 294 295 296 296 297 298 298 299 302 300 298 297 297 297 298 298 297 297 296 296 295 294 294 294 293 293 293 293 293 292 291 291 290 289 289 290 291 290 290 289 289 289 289 289 289 289 289 288 288 288 287
293 287 287 291 293 292 291 291 291 291 289 288 287 285 287 285 286 290 291 292 288 288 288 289 290 291 292 293 295 296 294 294 294 295 295 295 295 295 296 296 297 299 300 300 297 294 293 295 295 295 295 295 295 295 295 294 294 293 293 293 293 293 293 293 293 293 292 292 292 291 291 291 290 290 289 289 288 289 289 289 289 288 288 288 287 287
287 286 290 292 294 291 290 289 289 289 289 287 286 286 285 286 288 291 291 293 291 286 289 291 289 290 292 293 295 295 295 296 296 296 297 296 295 295 295 296 297 297 298 299 299 294 294 294 294 294 295 295 297 296 295 295 293 292 292 293 293 293 293 293 293 293 292 292 292 292 291 291 289 289 290 289 288 289 288 289 288 288 288 287 287 287
284 286 291 293 292 290 289 288 287 287 287 285 285 282 284 287 285 286 287 289 288 289 282 281 285 288 290 291 292 294 295 296 297 296 296 296 295 296 297 298 298 298 298 298 298 297 292 293 293 293 293 295 295 294 293 293 293 292 292 292 292 292 293 293 293 293 293 292 291 289 290 289 288 287 288 287 287 287 287 288 288 287 288 287 287 287
289 289 292 293 290 291 290 290 287 285 287 287 287 286 286 287 288 287 287 285 286 286 286 287 287 288 290 289 290 293 295 294 295 295 294 295 295 297 298 298 298 298 299 299 298 297 290 291 292 293 294 293 294 294 294 293 293 293 292 292 292 292 292 293 293 293 291 290 288 287 287 287 286 286 285 285 284 286 287 288 287 287 287 287 287 286
289 290 289 289 289 289 289 287 287 288 286 288 287 289 290 290 288 288 288 286 283 284 285 285 282 284 286 289 290 292 291 291 294 293 294 295 296 296 296 297 298 298 299 298 298 298 293 292 292 291 291 292 294 293 294 294 293 292 292 292 292 292 292 292 292 292 291 290 289 287 287 286 286 285 285 286 286 285 286 287 288 287 287 287 286 286
289 290 291 290 288 288 288 287 287 289 288 287 284 290 291 289 288 286 285 284 280 279 285 285 281 281 282 285 286 288 289 291 291 291 293 294 295 295 296 297 297 297 297 296 295 296 292 291 291 291 291 292 293 294 293 292 292 292 292 291 292 291 291 292 292 291 291 290 289 289 289 289 288 287 287 288 288 287 287 287 287 287 286 287 286 285
289 287 288 289 288 287 285 285 289 290 288 285 284 286 287 287 284 284 284 284 283 282 283 283 282 280 283 287 288 291 291 290 290 292 292 294 294 294 295 296 296 297 296 295 295 294 292 292 292 292 292 292 293 291 291 291 291 291 291 291 291 291 291 291 292 291 291 290 289 289 289 289 288 288 288 288 288 287 287 286 286 286 286 286 286 285
288 286 286 286 285 283 286 290 289 290 288 284 285 284 285 285 284 283 284 282 281 279 282 282 282 281 282 285 290 291 287 288 290 292 294 294 294 295 295 295 295 297 297 294 294 294 292 291 292 293 291 291 290 290 291 291 291 291 291 291 290 290 290 290 291 290 290 291 290 289 289 288 289 288 287 287 287 287 287 286 285 285 285 285 285 285
288 288 287 289 286 286 288 287 288 290 288 286 285 285 283 282 282 284 281 284 278 277 280 280 282 279 282 287 282 284 286 286 289 292 293 294 295 296 296 296 296 296 296 294 293 293 292 292 292 291 289 289 290 290 291 289 290 290 290 290 289 289 290 290 290 290 290 290 290 289 288 288 288 287 285 286 285 286 285 285 285 285 284 284 284 284
287 291 290 288 287 289 286 284 285 288 288 286 286 287 281 281 279 278 278 278 278 278 280 281 283 283 279 283 283 283 284 287 290 289 292 293 293 294 294 295 297 297 297 296 291 291 290 289 289 288 289 289 287 288 289 289 290 289 290 289 289 289 289 289 289 289 289 289 289 289 289 288 288 287 285 285 284 285 284 285 284 284 285 284 284 283
288 289 288 286 289 286 285 286 284 282 284 287 288 281 283 284 277 275 271 277 275 277 280 282 283 283 278 279 281 284 283 284 288 290 292 292 293 294 294 295 296 296 296 296 291 289 288 287 286 286 287 287 287 287 288 288 289 289 289 289 288 288 288 288 289 289 289 289 289 289 289 288 288 287 286 285 285 285 284 285 284 284 284 283 284 283
283 287 286 289 289 292 285 287 283 281 285 285 281 283 280 275 274 271 271 271 271 277 278 280 282 279 281 285 284 286 288 284 287 291 292 292 293 293 293 294 295 295 291 292 291 289 286 288 288 287 287 286 286 288 288 288 288 289 289 288 288 288 288 288 288 288 288 288 288 289 288 288 288 287 286 286 286 285 285 285 284 284 283 283 283 282
284 283 286 287 289 290 290 286 282 283 283 284 284 280 277 273 271 268 265 266 270 276 278 279 281 281 283 281 289 291 293 295 290 291 291 291 292 293 293 293 293 293 290 290 290 289 288 289 289 289 288 288 288 287 288 288 288 288 289 288 288 288 288 287 287 288 287 288 288 288 288 288 288 287 286 286 286 286 285 285 285 284 284 283 283 283
279 284 285 287 284 288 292 291 290 288 283 286 284 286 283 279 269 267 270 277 277 279 276 277 277 275 275 281 285 293 292 289 288 290 290 289 289 289 289 289 289 291 289 288 288 290 290 289 289 289 288 288 287 287 287 287 288 288 288 288 288 287 287 287 287 287 287 288 288 288 288 287 287 287 286 286 286 286 285 285 285 284 284 284 284 283
284 285 286 291 287 290 290 293 291 283 283 283 282 282 280 281 278 280 282 279 279 273 274 273 278 277 284 286 287 284 287 289 288 288 288 291 292 291 291 293 293 292 289 286 287 288 287 287 287 288 287 287 287 286 286 286 287 287 288 288 288 288 287 287 287 287 287 288 288 287 287 287 286 287 286 285 285 285 285 285 284 284 284 284 283 283
284 282 286 289 286 289 289 290 289 291 279 282 284 281 284 284 284 281 281 280 275 272 277 277 278 282 284 288 289 290 289 289 288 289 289 290 292 292 292 292 292 289 287 286 287 288 287 285 286 287 287 286 286 286 286 287 287 288 288 288 287 287 287 287 287 287 287 287 286 287 287 286 286 286 285 285 285 284 284 284 284 284 283 283 283 283
285 287 289 286 287 288 283 286 287 286 286 282 279 282 286 284 283 282 274 272 275 276 277 280 280 281 280 280 283 284 284 285 284 286 289 289 287 288 291 290 289 287 288 287 285 285 286 286 286 286 286 286 286 286 287 287 287 288 288 288 287 287 286 287 287 286 286 286 286 286 286 286 286 286 285 285 284 284 283 283 283 282 282 282 282 282
290 283 289 287 287 287 285 289 287 287 286 282 281 285 284 278 277 279 274 275 276 276 277 278 283 283 283 284 284 285 286 288 291 287 284 286 286 286 286 288 286 284 284 287 288 287 287 288 288 287 286 285 285 286 286 287 287 286 286 287 287 287 287 287 287 286 286 286 287 287 287 286 286 286 285 285 284 283 283 282 282 282 282 281 281 281
288 284 286 288 288 287 284 285 281 283 286 286 286 284 283 281 277 275 280 277 280 277 279 279 283 280 286 281 284 285 287 288 286 283 283 285 285 285 285 286 287 286 286 287 287 288 289 289 288 287 286 286 286 286 286 285 284 285 286 285 286 286 286 285 286 286 286 286 286 287 286 286 286 286 285 285 283 282 283 283 282 282 281 281 281 281
285 288 280 288 286 286 282 284 281 284 282 284 285 282 284 283 282 281 282 280 280 279 278 278 277 282 287 283 285 287 285 284 282 285 288 288 287 285 285 287 286 286 286 287 287 288 288 288 288 287 286 285 284 284 284 284 285 286 285 285 286 286 286 286 286 286 286 286 286 286 285 285 285 285 285 284 283 283 282 282 282 281 281 280 280 280
286 284 282 286 285 285 287 287 286 287 289 287 287 285 287 284 281 280 278 285 281 280 278 279 277 284 291 288 286 284 284 283 284 286 289 288 287 286 288 286 284 285 285 286 287 287 287 286 287 286 285 284 283 284 284 285 284 284 285 287 287 286 286 286 286 286 286 286 286 285 286 285 284 284 284 283 283 283 282 282 281 281 280 280 280 280
290 285 285 282 285 286 288 291 288 288 288 287 288 286 289 287 286 282 278 281 283 281 284 282 280 282 293 295 286 286 286 286 287 285 286 285 286 286 287 286 285 284 287 288 286 287 286 286 286 286 287 287 286 286 285 284 284 285 286 286 286 286 287 287 287 287 286 286 286 285 285 285 284 283 283 283 283 282 282 281 281 280 280 280 279 279
293 285 282 284 287 288 292 293 291 287 286 285 285 286 286 285 286 284 284 284 282 283 281 281 279 282 292 296 295 293 291 285 287 285 287 288 287 286 285 287 289 289 288 286 285 285 285 284 284 285 285 287 287 287 286 286 285 285 285 286 286 286 287 287 287 287 286 286 285 285 285 284 284 283 283 282 283 282 282 281 280 280 280 279 279 279
288 286 284 280 281 283 285 287 288 286 285 282 281 285 288 289 287 286 285 283 282 283 283 280 275 281 291 295 294 294 294 294 294 295 294 292 293 291 290 290 291 291 291 292 291 289 285 286 286 287 287 287 287 287 287 286 285 285 285 285 285 286 287 287 287 286 286 285 285 285 284 284 283 282 282 282 282 282 281 280 280 279 279 279 278 279
290 286 285 279 277 276 276 277 279 282 284 282 283 284 287 286 286 284 281 282 279 282 284 280 280 286 291 293 293 293 294 294 295 296 296 295 293 294 294 292 291 289 290 291 291 287 287 288 288 288 288 288 287 287 287 287 286 285 285 285 286 286 286 286 286 286 286 285 285 284 284 284 283 282 282 282 282 282 281 280 279 279 279 279 278 278
284 287 288 286 284 281 283 286 287 286 283 283 284 286 286 287 287 287 286 283 280 283 282 283 284 284 287 289 290 292 293 293 294 295 294 294 293 291 289 289 289 290 290 290 287 286 285 286 288 289 290 289 288 287 287 287 287 286 286 286 285 286 286 286 286 285 285 285 284 284 284 284 283 283 283 282 282 282 280 279 279 279 278 278 278 277
283 283 286 287 287 287 289 288 290 290 286 287 286 286 286 285 285 284 282 281 286 282 278 285 287 284 285 289 290 291 293 293 294 294 294 294 294 294 291 289 289 287 287 286 286 287 289 290 291 290 289 288 288 288 288 287 287 287 286 286 286 285 285 286 285 285 285 285 284 284 284 284 284 283 283 282 281 281 280 279 278 278 278 278 277 277
282 283 285 286 285 288 289 289 290 289 288 288 288 287 286 287 286 283 283 285 285 281 279 285 287 285 286 289 291 292 293 293 294 295 295 296 295 292 290 290 289 288 287 285 286 287 288 289 290 291 291 291 289 289 289 289 287 286 286 286 286 285 285 285 285 284 284 284 284 284 284 284 283 283 282 281 280 279 279 278 278 278 277 277 277 277
284 283 286 286 285 286 286 287 288 287 287 287 287 288 288 287 287 287 286 287 287 285 286 286 286 286 289 290 292 293 295 295 295 296 296 295 294 294 294 293 292 292 288 285 286 287 287 288 289 291 292 292 291 290 290 289 288 287 287 286 286 285 285 284 284 284 284 284 284 284 284 283 282 281 281 280 279 279 279 278 277 277 277 276 276 276
287 282 290 287 284 284 286 287 287 286 286 284 286 287 287 287 287 287 287 287 287 286 287 286 286 285 291 293 293 294 295 295 295 294 294 295 295 295 294 294 293 292 290 286 285 287 288 288 289 289 290 291 291 291 290 290 289 288 286 286 285 285 285 284 284 284 284 284 284 284 283 282 281 281 280 280 279 278 278 277 277 276 276 276 275 275
286 283 287 285 282 281 286 285 285 285 285 284 284 285 285 285 283 285 285 287 286 284 286 285 283 284 290 293 294 294 294 293 293 294 294 295 295 293 291 288 287 288 288 289 290 290 290 289 289 289 290 290 290 290 290 290 290 288 287 287 285 285 284 283 284 283 284 284 284 283 282 282 281 280 279 279 278 277 277 276 276 275 275 275 274 274
285 282 282 283 280 279 285 286 284 284 283 279 281 284 286 286 287 288 289 289 288 288 285 283 284 290 291 292 290 290 290 291 291 291 291 290 287 285 286 286 286 287 287 288 288 288 289 289 289 290 290 291 291 291 292 292 291 290 290 288 288 284 282 283 283 283 283 283 282 282 281 281 280 279 278 278 277 277 276 275 275 275 274 274 274 274
286 285 283 285 278 279 284 284 285 280 274 276 288 290 289 286 287 285 285 287 289 290 287 290 288 287 285 285 284 284 285 286 287 287 286 285 286 286 286 286 286 286 286 287 287 288 288 288 289 289 290 290 290 291 292 292 292 292 291 289 284 283 282 282 282 282 283 282 282 281 280 280 279 278 278 277 276 275 275 275 275 275 275 275 274 274
285 285 283 285 279 278 283 283 278 272 275 286 289 291 292 291 290 289 289 290 289 285 282 282 283 284 287 285 285 284 285 286 287 284 284 285 286 286 285 286 286 286 286 286 287 287 287 287 287 288 289 289 290 290 291 291 290 290 289 286 284 283 282 281 282 282 282 281 281 280 280 280 279 278 277 277 276 275 275 275 275 275 275 275 274 274
283 282 282 281 282 282 279 278 271 272 286 283 288 287 286 285 285 284 284 284 275 278 279 277 280 282 286 284 284 284 285 285 286 285 286 286 287 285 285 285 285 286 285 286 286 286 286 286 286 287 287 288 288 289 289 289 289 288 288 284 283 282 281 281 281 281 281 280 280 280 280 279 278 278 277 276 276 275 275 275 275 275 275 274 274 274
285 284 283 278 284 276 277 277 276 282 282 283 280 278 280 277 278 277 275 277 275 277 279 278 279 281 285 283 284 284 286 285 283 283 287 286 286 287 286 286 286 286 286 286 286 286 287 286 286 286 286 286 286 286 286 286 286 286 286 285 283 281 280 280 280 280 280 280 280 279 279 279 278 277 276 276 275 275 275 275 275 275 275 274 274 273
287 282 284 279 278 283 276 275 275 274 272 274 275 281 283 282 282 282 281 278 277 278 280 280 279 280 283 284 283 285 285 282 279 281 285 285 286 287 287 287 287 286 286 286 287 287 287 287 287 287 286 285 286 286 283 282 283 283 283 283 280 278 278 279 280 280 280 280 280 279 279 279 278 278 277 276 276 276 276 276 276 275 274 273 273 273
281 285 283 279 277 279 277 273 273 272 274 275 276 278 282 282 281 283 281 276 276 278 279 280 280 282 282 282 281 283 280 276 277 280 283 285 286 287 286 286 286 286 286 287 286 286 287 287 286 286 287 287 286 285 280 280 280 280 279 278 276 276 277 278 278 278 279 280 280 280 280 279 279 278 277 276 276 276 276 275 275 274 273 273 273 272
274 275 279 277 276 277 276 273 271 276 272 276 277 280 281 282 282 282 273 272 275 278 281 281 280 281 281 282 281 281 278 274 276 279 284 285 286 286 286 286 286 286 287 287 287 287 287 287 286 287 287 286 286 283 280 279 281 280 279 278 275 276 277 276 277 278 280 280 279 280 279 280 279 279 278 277 276 276 276 275 274 272 272 272 272 271
267 269 272 271 271 272 274 271 274 274 278 277 277 280 279 280 280 273 267 271 279 280 281 282 282 281 282 280 280 277 280 282 282 284 285 285 285 285 286 286 286 287 287 287 287 288 288 288 287 287 286 287 286 283 280 279 280 281 278 276 276 277 277 276 277 277 277 278 278 279 278 279 279 278 278 277 275 275 274 273 273 272 271 270 270 269
269 271 270 272 269 268 268 267 268 273 278 277 279 279 280 273 263 263 274 281 280 280 282 283 281 280 281 280 278 279 281 283 283 284 284 284 284 284 285 285 285 286 287 287 287 287 288 287 287 287 287 288 287 285 281 279 280 281 279 277 279 279 275 274 275 275 275 278 278 278 278 277 278 277 276 276 275 273 273 272 272 271 271 270 269 268
271 271 268 270 271 272 270 268 267 265 276 279 277 276 278 269 269 276 278 280 282 281 282 280 281 279 281 278 280 280 280 280 281 281 282 283 282 282 283 283 283 284 284 285 286 286 286 286 286 286 287 288 287 286 284 282 282 283 282 281 283 280 275 275 275 276 278 277 277 277 277 277 276 276 275 274 274 274 272 271 270 270 270 269 269 268
273 267 268 270 274 267 268 267 268 274 275 281 277 270 275 276 279 281 279 278 281 280 279 281 279 280 280 279 279 279 279 280 280 280 280 281 281 281 282 282 283 283 284 284 285 285 285 285 285 285 286 287 287 286 285 283 283 284 283 284 285 278 276 275 275 276 276 276 276 276 275 275 275 275 274 274 273 273 271 270 269 269 269 269 268 268
272 269 273 269 274 270 266 271 275 278 277 278 280 277 278 280 282 281 281 280 279 278 281 279 278 279 279 279 278 278 278 278 278 279 279 279 280 280 280 281 281 282 282 282 283 284 284 284 284 284 285 286 286 286 285 283 283 283 284 286 284 279 276 275 275 276 276 276 275 275 275 274 274 273 273 273 273 272 270 269 269 269 269 268 268 268
274 275 275 270 270 275 276 276 277 275 276 276 278 279 280 281 280 281 279 277 278 279 279 278 278 278 277 278 277 277 277 277 277 277 278 278 278 279 279 279 279 280 281 281 281 281 282 282 282 283 283 284 285 286 286 285 284 283 285 286 284 281 278 277 276 276 276 276 275 275 274 274 273 273 273 272 272 272 271 270 269 269 269 268 268 267
273 274 270 270 273 270 264 274 273 274 275 276 275 276 278 278 278 279 278 278 277 277 277 277 276 276 276 276 275 274 274 275 275 275 276 275 275 275 276 276 277 278 278 277 278 278 278 278 278 279 279 280 282 284 285 285 285 285 285 285 285 282 279 277 277 277 276 276 275 275 274 274 273 272 272 272 272 271 270 270 269 269 268 268 268 267
269 275 270 272 271 270 269 274 274 275 276 276 276 274 274 275 274 274 275 275 275 275 275 275 275 273 274 272 273 272 272 273 272 272 272 272 272 273 274 275 275 275 275 275 275 275 275 275 275 276 276 277 279 281 283 285 285 286 285 285 284 281 279 277 277 277 277 276 275 274 273 274 271 271 272 271 271 271 270 269 269 269 269 268 268 268
273 274 267 272 270 272 274 274 275 275 275 275 275 274 275 275 273 273 273 273 273 272 273 273 273 272 271 271 272 271 270 270 271 270 270 270 270 271 272 273 272 272 272 271 272 273 272 273 273 273 274 275 277 279 281 283 284 285 285 285 284 280 278 278 277 277 276 275 274 273 272 273 272 272 272 271 271 271 271 270 269 270 270 271 271 270
272 269 273 271 267 267 268 271 274 267 268 273 274 274 274 273 272 273 272 271 271 270 271 270 271 271 270 270 270 270 269 269 269 269 268 269 269 270 270 269 269 269 269 270 270 270 270 270 270 271 272 273 275 276 278 278 278 279 280 282 283 280 278 277 277 276 275 275 273 273 271 271 271 271 270 270 270 270 269 271 273 271 270 269 272 274
272 273 272 269 268 267 273 274 274 274 274 275 276 275 272 272 272 271 270 269 269 269 270 269 268 268 268 269 270 269 268 267 267 268 267 268 268 269 268 267 266 266 267 268 267 267 267 267 268 269 271 272 274 274 274 274 275 275 276 278 279 280 279 278 277 276 275 274 272 272 271 271 271 270 269 269 269 269 267 267 270 274 273 272 273 273
Wind_Speed
4 7 8 10 15 15 6 10 18 18 12 6 1 4 10 10 10 8 15 9 3 3 11 15 17 18 17 17 19 17 10 10 13 14 15 14 15 15 15 16 19 18 20 21 11 7 10 11 12 12 11 11 10 10 12 13 14 15 16 15 16 13 13 13 12 11 12 12 8 7 11 12 10 10 8 8 8 8 8 8 8 7 7 7 7 7
3 7 10 16 17 12 13 12 10 10 6 9 9 7 14 6 15 16 13 10 4 6 6 9 16 18 17 16 16 13 10 16 16 17 18 19 16 14 16 19 20 20 16 15 10 6 5 7 8 8 8 8 11 12 13 16 18 16 14 17 15 13 14 15 16 15 13 13 15 15 15 12 11 10 11 11 9 9 7 8 8 7 6 7 7 7
5 11 16 19 12 7 2 4 7 10 10 8 9 9 9 12 13 15 12 15 10 3 14 14 18 18 17 16 15 14 16 17 15 17 20 17 15 13 15 18 20 17 19 20 17 7 7 7 7 8 9 12 17 16 18 17 13 14 15 15 15 15 15 15 15 14 14 11 10 10 8 11 8 6 6 5 6 5 7 8 8 7 7 8 7 8
6 7 19 13 7 5 5 4 5 4 5 6 7 5 13 9 3 14 5 8 1 8 3 4 12 14 10 10 13 14 17 17 17 17 16 14 14 17 19 18 18 18 18 19 19 13 7 7 8 7 9 12 9 9 9 11 16 13 13 14 15 15 15 14 14 14 12 11 7 4 5 4 5 5 5 4 5 5 6 8 7 7 8 9 8 7
18 7 8 10 6 9 13 9 4 5 13 8 12 8 11 11 15 14 8 4 5 5 4 10 15 17 11 15 12 14 19 17 15 15 14 15 13 17 16 15 16 21 23 19 15 14 5 6 9 12 11 8 11 12 14 15 15 13 17 16 16 15 16 14 14 13 10 9 7 6 6 5 5 5 5 5 5 8 8 7 9 11 9 8 8 8
14 5 2 5 8 9 9 7 8 8 14 12 7 13 21 18 14 10 12 8 5 8 3 4 10 14 8 15 14 10 7 9 12 13 17 19 17 15 17 21 21 19 19 18 18 17 7 10 7 6 7 10 11 12 14 14 14 12 12 13 13 11 11 12 13 13 12 13 13 11 11 10 9 9 10 14 17 13 14 15 8 7 10 11 9 9
6 5 7 7 7 9 8 8 7 10 15 14 6 17 19 14 11 9 11 3 7 6 3 2 4 20 6 3 5 6 9 13 8 9 15 17 16 13 17 19 16 18 18 11 12 13 7 7 6 8 11 13 12 12 7 8 10 11 12 13 14 13 12 11 12 14 12 12 12 16 17 15 16 15 13 9 7 10 9 7 10 10 8 9 10 9
2 4 7 7 7 7 6 6 11 15 10 11 2 8 9 8 6 6 5 7 9 1 4 1 5 9 23 9 8 14 16 12 12 14 16 17 15 14 16 17 16 16 12 11 12 10 7 8 12 14 13 11 12 6 8 9 9 13 14 14 14 11 11 11 12 14 14 14 13 13 13 12 14 15 14 12 10 8 8 9 10 9 9 8 8 9
6 3 6 6 5 5 9 19 5 12 8 5 1 7 5 6 5 3 4 4 3 5 11 7 3 4 14 5 14 14 10 9 14 18 18 17 16 16 17 16 16 17 14 8 11 10 7 9 10 9 9 8 7 10 12 13 12 11 11 12 12 12 12 11 13 14 14 13 14 14 12 12 11 10 6 6 6 9 9 11 9 9 9 8 7 8
2 1 4 8 8 11 10 1 8 13 10 5 5 5 4 4 4 2 1 0 3 3 16 6 4 4 22 10 3 1 6 10 13 18 18 16 16 16 14 11 14 14 14 9 9 8 6 8 8 8 5 7 8 6 6 6 8 9 10 12 13 12 11 11 13 14 15 13 12 13 14 16 11 8 5 7 9 9 9 12 11 10 10 9 9 8
5 1 5 6 9 5 3 1 1 7 5 4 3 1 3 6 3 3 6 2 3 9 11 12 11 8 13 5 8 8 6 10 12 5 8 10 9 12 11 11 14 13 14 11 6 5 5 5 5 6 9 8 6 6 8 9 10 10 12 13 14 14 12 12 14 15 17 15 14 15 16 16 14 12 10 10 10 9 10 13 12 12 11 10 11 9
4 0 2 4 4 4 3 2 2 1 0 1 1 1 5 5 7 3 4 3 3 13 4 11 14 12 11 3 4 5 3 1 6 9 13 12 13 13 11 11 13 14 12 11 5 4 3 4 4 5 6 7 7 7 9 9 10 11 12 13 15 13 14 13 14 15 16 15 16 14 15 16 15 14 12 15 15 15 15 13 12 10 8 10 10 10
5 12 6 3 5 12 3 2 2 2 2 4 3 1 2 6 7 4 2 2 5 12 3 5 7 2 21 8 4 7 8 4 8 11 12 13 13 12 11 12 11 12 7 6 5 2 4 7 9 9 7 7 10 13 12 13 12 12 12 15 17 16 15 15 15 16 16 15 16 15 15 14 12 13 14 14 13 12 13 13 12 12 12 10 10 12
9 1 3 5 1 6 9 8 1 2 5 7 7 5 5 4 5 5 5 3 7 7 4 5 3 11 7 4 11 14 17 15 10 11 11 11 12 10 10 8 8 11 3 3 5 6 6 8 9 10 11 12 11 11 13 13 13 13 13 15 17 18 16 14 15 17 17 18 17 15 14 13 12 13 14 13 13 13 12 11 14 14 14 14 15 14
8 11 6 7 4 5 12 12 15 9 8 13 2 12 11 10 6 4 5 10 9 9 3 3 4 9 1 6 7 15 7 1 4 8 9 6 7 9 8 8 10 14 3 3 5 7 9 9 9 10 10 9 10 10 11 11 12 12 13 15 17 14 16 18 18 16 18 18 17 16 15 14 12 13 12 13 12 12 13 12 13 12 11 12 12 12
8 12 7 8 0 9 11 12 5 4 1 2 3 3 1 10 6 8 8 7 9 3 3 3 8 4 7 2 4 4 6 7 5 5 4 8 9 8 10 13 13 12 4 3 5 6 7 5 6 7 8 9 8 9 9 9 10 12 14 16 18 19 17 17 16 17 19 18 14 13 15 16 14 11 11 10 10 11 12 12 13 13 12 10 9 9
1 8 1 2 3 7 9 5 6 10 4 3 7 7 12 4 7 6 5 2 1 1 14 3 6 10 7 12 11 13 11 12 8 8 7 9 13 11 10 11 11 6 6 5 5 6 5 4 6 8 7 7 7 9 13 16 16 18 17 15 17 16 13 16 18 19 15 14 14 17 17 14 14 15 15 15 14 13 10 11 11 11 11 9 9 10
9 9 1 5 7 2 2 1 2 3 3 8 3 8 2 2 3 3 6 2 4 10 9 4 16 9 4 15 4 2 1 6 5 10 10 9 6 6 8 7 6 6 7 6 5 5 5 5 7 6 6 8 10 11 12 14 14 13 12 13 15 14 17 18 17 17 16 16 17 15 16 16 17 16 15 13 13 11 10 10 10 9 10 12 10 10
2 9 9 2 1 4 3 1 5 1 1 3 4 2 4 4 5 2 3 5 8 11 7 7 17 16 10 15 3 5 7 10 10 5 4 7 5 4 5 8 7 5 5 7 8 6 7 9 11 10 9 7 8 9 10 9 8 7 9 10 11 15 18 15 12 11 11 12 12 13 16 17 15 14 14 12 10 10 12 13 12 12 11 8 9 10
3 5 2 2 2 2 1 3 7 3 2 1 1 2 1 1 3 5 8 3 3 14 9 12 10 15 5 3 3 8 11 11 8 5 3 4 4 3 4 5 7 5 6 6 7 8 7 8 9 10 10 11 13 11 9 8 6 9 10 8 11 10 8 9 13 14 15 15 14 13 11 12 14 14 13 12 12 12 14 13 12 12 10 12 10 11
4 1 8 2 4 3 3 5 7 8 5 3 2 4 2 2 3 2 3 3 6 9 9 9 10 6 9 3 4 10 9 8 6 4 5 5 5 7 6 6 5 5 6 7 7 8 9 9 7 7 6 6 5 5 6 8 12 12 7 10 12 14 14 14 15 14 16 14 15 14 15 16 15 15 13 12 12 13 13 11 11 12 11 9 12 12
1 2 7 5 7 10 11 2 9 7 7 7 10 11 13 10 6 9 13 3 3 6 9 9 13 4 10 3 2 5 3 3 4 4 6 8 8 8 6 6 3 6 7 8 8 6 6 6 6 4 3 4 5 6 10 11 7 8 12 15 14 12 12 15 15 15 17 15 15 16 16 15 12 12 12 14 13 14 13 12 12 11 10 13 12 13
3 2 3 8 9 10 8 10 3 7 6 5 5 7 9 9 6 8 15 8 3 3 3 4 9 9 5 20 3 3 7 7 8 5 5 5 7 7 8 7 7 5 8 8 7 7 7 6 5 4 7 9 11 11 10 9 12 15 16 14 13 15 18 17 18 16 13 12 13 16 16 13 11 13 14 15 13 14 13 12 11 11 13 12 11 11
8 2 1 7 4 6 13 10 9 4 4 4 5 5 2 8 8 9 9 5 9 5 8 9 13 7 8 17 19 12 12 5 7 5 7 8 7 8 7 8 9 9 10 9 8 7 5 3 2 3 5 8 9 11 14 15 13 12 11 12 12 16 19 17 16 15 14 15 16 15 13 14 14 13 14 16 15 15 13 11 11 11 12 12 11 13
2 2 4 5 3 4 5 5 10 1 2 3 4 7 10 10 7 7 3 2 9 12 15 13 17 10 12 13 17 16 19 20 20 20 14 13 12 10 8 10 12 13 13 15 14 11 4 4 5 7 8 9 10 10 9 9 11 11 13 11 14 17 18 16 14 12 14 15 17 15 15 15 14 14 15 15 13 15 13 13 12 12 14 12 12 12
9 5 6 8 9 13 12 9 8 8 8 4 2 4 6 11 15 9 11 7 13 8 14 13 13 13 16 14 17 21 24 26 29 26 22 15 12 13 13 11 13 12 12 14 14 7 5 7 6 7 9 10 11 10 10 10 11 12 12 15 16 16 14 15 13 14 14 14 15 15 17 16 14 16 17 17 15 16 15 13 13 13 12 13 14 13
3 4 11 13 14 16 16 16 6 4 2 8 9 13 15 13 16 15 12 12 15 15 17 15 16 18 17 15 18 24 26 27 28 28 20 13 10 9 10 10 9 12 13 12 7 5 5 6 11 13 12 11 9 9 10 10 11 11 13 15 14 15 14 13 12 14 15 15 15 15 16 15 17 18 17 16 15 12 12 13 13 14 14 13 14 14
1 5 12 17 21 20 20 21 18 13 18 16 18 17 15 14 10 14 14 18 14 14 20 11 18 19 19 16 22 26 27 27 27 25 21 12 11 13 11 10 11 9 10 6 6 7 9 12 12 12 11 10 11 10 10 10 12 12 13 16 15 14 12 10 12 15 15 15 15 16 16 17 17 16 15 13 11 11 12 12 12 13 12 13 14 15
5 10 9 13 18 18 20 20 20 19 17 16 17 16 17 16 15 14 17 17 14 15 21 15 15 18 18 18 22 24 26 27 26 26 23 19 15 11 11 13 13 12 9 6 7 10 12 13 12 11 11 10 8 10 12 11 11 10 10 12 13 11 14 13 13 14 15 15 16 17 17 15 12 11 11 12 13 13 13 14 13 13 13 13 13 12
2 11 10 13 18 16 17 19 20 22 19 19 18 19 20 20 22 23 25 23 24 25 24 24 24 28 23 19 19 24 26 24 21 18 19 20 21 20 18 17 15 15 9 7 9 11 10 10 11 12 14 14 11 11 11 12 12 12 14 15 14 12 13 10 14 15 15 16 18 17 15 12 11 12 12 13 14 15 14 14 13 13 13 13 13 13
8 3 11 14 15 17 19 19 17 19 19 23 23 24 22 22 24 26 25 23 23 25 25 30 31 29 19 21 24 24 23 20 18 19 21 22 23 25 23 18 13 13 14 7 7 10 11 11 12 12 13 15 15 13 12 12 13 11 12 13 11 12 12 12 14 14 14 17 18 15 11 11 13 12 14 14 13 11 13 14 13 13 13 12 12 14
3 6 5 8 10 9 5 13 17 18 20 24 22 21 21 23 25 23 20 22 23 29 27 25 21 19 17 22 25 24 24 22 23 23 22 20 21 19 15 14 13 13 14 15 14 13 13 13 12 13 14 15 15 14 12 12 12 11 12 13 11 13 9 11 13 14 16 17 13 11 13 13 12 12 13 12 13 14 13 12 13 13 14 13 14 13
4 3 4 5 13 15 14 17 19 19 17 17 19 23 28 30 27 25 26 24 22 22 22 18 21 18 16 11 12 13 14 12 12 12 15 12 12 11 11 11 10 11 12 13 15 15 15 15 15 15 16 15 15 15 15 15 13 13 14 14 15 6 7 12 13 14 14 12 11 12 12 11 12 13 12 13 13 12 12 14 14 14 14 16 15 12
8 10 10 5 11 11 11 15 12 13 17 15 10 23 26 28 27 27 25 24 26 20 18 14 9 11 13 11 10 10 12 12 12 8 8 8 11 12 13 12 11 10 10 11 11 13 13 14 15 15 15 16 17 17 17 14 13 15 14 11 4 7 11 11 12 12 13 11 10 11 11 11 12 12 12 11 11 12 13 14 16 15 13 12 12 14
14 13 14 9 12 13 10 13 17 23 19 6 1 4 13 22 24 28 26 25 16 13 16 15 15 13 9 8 8 10 10 13 11 2 6 9 10 12 13 13 15 14 13 13 14 13 12 13 15 16 18 18 17 16 14 15 13 12 12 7 7 7 9 11 11 12 12 11 11 10 11 12 12 13 12 12 13 13 14 15 13 14 13 14 15 16
14 14 12 12 11 13 12 12 18 17 0 3 1 6 14 11 12 15 15 5 14 12 13 10 11 11 7 12 10 11 10 13 8 4 9 11 11 11 13 14 16 15 14 13 13 14 14 14 13 14 15 14 14 15 13 13 13 11 12 5 7 7 8 9 10 11 9 10 11 13 13 14 13 13 12 13 13 14 15 15 16 16 13 12 11 10
16 12 10 15 10 18 14 18 23 15 20 15 4 11 11 6 12 9 7 3 9 9 10 12 12 13 9 13 11 11 12 10 4 1 10 16 15 12 10 13 13 13 13 13 12 13 12 11 12 13 11 13 12 13 13 12 12 11 10 8 6 5 6 6 9 11 11 12 12 12 13 13 14 14 14 14 15 16 16 16 15 13 11 12 12 13
8 13 9 14 10 14 18 16 13 10 15 4 6 7 5 6 8 10 7 5 10 12 10 10 14 15 12 13 15 14 11 9 10 9 14 20 18 16 14 12 13 12 12 13 13 13 14 14 13 14 12 13 14 12 10 12 12 11 8 7 4 3 5 7 12 11 9 13 13 13 12 12 13 14 15 15 17 18 16 13 10 12 12 14 14 13
3 7 9 13 9 8 12 13 11 9 1 4 10 11 7 13 10 11 5 5 7 12 12 4 10 11 13 14 16 14 13 11 10 11 14 19 19 16 15 15 14 14 13 12 12 14 15 15 14 13 13 14 17 17 12 11 10 9 8 5 5 4 5 7 5 3 5 4 3 5 8 10 12 13 14 16 16 14 14 14 13 10 9 9 9 10
8 5 3 7 9 9 12 13 13 5 2 8 10 7 10 14 9 1 11 4 14 10 9 8 8 9 11 8 11 10 13 12 14 15 16 16 16 15 14 17 18 18 18 16 13 11 11 11 12 15 16 16 17 15 14 11 10 10 7 6 3 4 6 5 4 2 1 1 4 5 6 7 9 10 12 12 10 9 10 8 9 10 11 9 8 9
3 4 1 11 7 11 12 13 9 6 5 4 10 8 14 11 5 4 7 9 10 8 8 6 6 6 8 8 8 8 8 5 11 15 16 15 16 17 15 14 14 15 16 16 15 14 13 13 12 12 12 12 13 13 12 10 11 12 9 6 5 8 7 4 1 0 2 4 5 5 5 4 5 6 5 6 8 7 7 8 10 10 11 11 8 8
2 3 3 3 6 5 3 5 7 7 1 7 7 9 11 9 7 5 6 5 6 10 7 4 7 7 9 5 8 5 8 10 10 12 15 16 14 17 18 18 18 17 15 11 12 12 13 14 15 17 16 13 13 12 11 9 11 12 11 8 10 10 4 2 2 4 4 5 6 8 9 8 7 7 7 6 8 9 9 6 7 8 9 8 9 11
4 6 4 5 3 6 6 9 9 12 1 15 8 12 5 5 8 6 3 3 3 3 7 7 4 9 4 10 9 8 10 11 10 12 14 13 15 16 18 18 18 18 19 19 17 13 11 14 16 16 17 16 14 12 11 9 10 11 11 10 13 7 3 2 2 3 5 6 7 7 8 8 10 9 8 9 9 10 10 8 9 9 9 10 10 11
2 8 8 7 4 8 8 10 6 2 6 3 7 3 7 3 6 0 2 2 2 1 3 4 6 7 6 9 11 12 11 11 13 11 12 14 14 15 15 16 16 16 16 15 15 16 16 15 14 15 14 14 13 12 11 9 11 11 11 14 12 4 2 2 2 1 3 4 5 6 7 8 8 7 8 10 10 11 11 10 10 10 9 10 10 10
3 6 2 7 4 4 5 9 10 13 9 3 2 5 4 4 2 2 2 2 2 4 1 4 8 9 8 9 12 11 13 12 13 14 15 14 14 14 15 16 16 16 16 16 16 16 14 16 19 18 17 14 13 12 11 9 11 15 14 12 7 4 4 3 3 3 3 4 5 6 7 8 8 9 9 10 11 12 11 12 12 11 10 11 10 10
5 12 9 4 5 8 10 10 11 8 9 13 12 3 2 4 3 3 1 2 3 4 4 5 6 7 8 8 10 11 11 13 15 14 13 13 14 14 14 14 15 16 15 16 16 17 17 17 18 19 20 19 15 14 12 11 10 15 17 12 9 5 5 5 6 6 7 5 6 7 8 10 9 9 10 11 10 11 11 13 13 12 11 11 11 11
4 4 1 5 7 7 8 5 6 9 13 12 9 10 3 3 3 0 3 3 4 3 3 4 4 6 8 10 10 11 13 12 12 12 13 13 14 15 15 15 14 14 15 16 17 18 17 17 17 19 20 22 19 15 14 13 12 12 14 14 12 7 6 7 8 8 7 8 8 8 10 12 10 10 11 12 10 10 10 11 12 13 13 13 13 13
8 4 4 9 10 9 14 13 12 9 12 13 11 8 7 7 2 3 3 4 2 2 3 4 4 6 5 8 9 10 12 12 10 11 11 12 13 13 14 14 14 16 15 14 15 17 16 17 17 19 20 20 19 16 16 15 15 13 13 13 12 8 7 8 9 10 10 10 8 8 10 11 12 13 11 12 13 13 12 12 13 15 17 18 18 16
6 4 7 8 9 9 11 11 16 17 13 14 13 7 6 5 4 5 4 2 1 4 6 5 4 6 7 9 8 9 11 13 11 10 11 12 13 13 13 14 15 16 17 16 14 15 15 17 19 20 19 20 17 15 16 16 14 14 14 13 12 7 8 11 11 11 10 8 8 9 8 8 8 10 9 10 11 11 12 15 16 16 13 11 10 15
2 10 13 7 9 12 11 14 9 6 9 8 7 6 6 5 3 5 4 1 1 2 4 7 9 7 8 9 9 7 9 12 13 11 12 13 14 15 15 15 14 16 18 16 14 15 16 16 18 19 21 16 15 16 13 15 15 15 17 16 16 10 10 12 10 10 11 9 9 9 8 8 8 9 9 8 9 8 5 4 9 6 8 9 13 15
9 13 9 9 10 13 15 14 8 10 11 11 13 6 4 2 2 3 3 2 2 2 4 5 9 11 10 9 6 8 10 12 14 13 13 13 14 14 15 16 16 16 17 17 17 18 19 19 19 18 18 19 14 13 15 15 17 16 15 16 16 16 14 13 11 10 10 9 9 11 10 10 9 9 8 8 9 8 8 5 7 13 11 7 12 13
Wind_Direction
144 158 164 196 224 224 223 191 220 233 240 274 291 229 243 246 268 267 267 266 186 275 239 242 245 253 253 249 255 261 266 261 262 264 260 255 257 259 262 258 260 263 259 260 265 224 213 205 203 203 195 197 194 191 184 182 185 183 179 171 178 172 166 164 163 167 164 167 166 173 186 193 187 187 183 186 187 185 184 178 176 174 172 169 163 164
108 184 212 217 222 217 219 215 229 252 257 245 255 263 266 250 269 251 266 272 218 202 262 239 254 255 254 254 256 263 269 264 256 259 258 256 250 251 256 260 259 259 269 273 266 252 241 218 208 196 189 175 177 200 183 186 189 182 174 178 172 167 173 175 174 174 177 179 181 180 189 185 182 181 186 192 190 187 179 178 176 174 170 170 171 168
192 203 222 226 225 230 240 203 220 221 235 239 235 250 279 261 259 275 263 266 260 165 264 265 266 260 254 251 254 254 254 256 254 246 253 255 256 250 248 254 260 264 266 272 272 242 224 219 211 193 192 194 198 189 187 190 173 177 179 179 171 175 175 179 177 173 182 182 182 182 180 180 179 196 190 179 172 162 174 182 178 173 174 173 175 173
255 243 237 232 222 238 261 219 219 260 252 218 236 249 243 255 273 283 204 256 254 187 264 254 273 271 264 260 255 250 251 251 250 252 254 249 249 249 246 247 257 263 261 261 265 262 218 212 210 198 199 202 190 176 185 176 182 179 182 178 175 177 178 177 180 181 179 171 156 132 135 141 136 166 151 139 138 158 161 185 183 184 178 179 177 177
229 223 224 228 195 204 232 231 214 247 263 202 216 228 256 249 237 235 269 332 285 274 260 287 278 276 251 256 251 246 243 252 259 261 258 256 240 247 256 262 256 256 261 263 267 266 218 213 208 202 202 181 188 188 186 183 181 184 183 179 176 176 180 180 176 173 156 134 121 108 89 93 87 77 131 144 178 183 184 176 190 193 177 175 177 179
259 253 131 163 199 211 221 240 217 214 261 250 193 209 234 242 259 257 277 324 321 300 248 249 309 272 207 215 233 239 262 248 247 248 253 254 247 246 254 252 253 255 256 257 260 262 229 216 207 207 195 192 197 194 195 186 182 173 173 173 175 174 177 177 174 167 158 164 160 152 153 166 179 182 177 192 193 185 189 196 174 161 183 181 180 183
237 213 189 192 186 204 204 218 223 186 241 268 246 208 233 245 240 259 274 343 278 250 316 94 220 292 126 242 229 244 244 244 253 242 247 251 250 242 246 251 251 251 258 252 254 262 234 219 198 204 200 199 195 201 172 169 174 171 171 174 175 175 177 175 173 169 165 167 174 178 182 183 187 191 206 200 182 185 186 161 177 183 180 186 180 183
188 237 198 209 190 182 188 238 235 188 230 263 224 188 220 236 231 229 213 196 256 293 257 152 154 265 291 244 212 223 232 229 244 249 247 246 250 243 243 251 252 253 249 252 250 252 230 208 198 202 205 196 199 162 159 169 169 173 175 172 175 174 175 176 172 174 177 176 181 185 190 192 195 199 198 187 187 174 167 174 180 176 185 184 184 177
165 208 199 208 192 170 204 219 202 161 187 229 228 147 181 197 204 153 160 192 228 11 297 175 95 286 264 259 197 197 223 233 235 241 244 245 245 246 245 247 256 261 260 241 254 249 225 210 211 210 199 194 161 168 175 177 175 171 169 171 172 175 174 175 177 178 185 184 184 187 188 198 209 203 187 172 167 173 174 180 176 179 180 180 183 183
305 151 219 183 157 217 228 252 159 175 209 265 111 82 71 65 71 122 116 144 325 29 276 169 166 218 280 299 172 352 201 223 229 231 239 236 236 241 250 257 259 267 273 253 233 243 224 210 210 203 169 172 187 165 155 152 154 163 165 172 174 178 177 176 180 183 187 187 182 189 196 200 195 185 164 169 177 179 179 187 184 182 178 181 180 184
234 347 155 134 206 222 183 211 181 205 190 78 76 66 2 30 18 20 65 95 32 268 259 164 192 173 277 300 177 141 196 210 219 244 269 268 266 268 258 253 260 260 262 264 237 238 222 212 188 162 180 181 158 160 158 161 166 166 170 173 179 181 177 179 183 184 190 190 190 197 197 198 193 186 173 173 188 183 184 193 188 187 186 181 183 175
257 78 183 245 103 87 115 123 34 73 174 146 243 135 14 321 10 28 341 41 187 267 217 191 181 181 226 285 277 214 259 271 211 218 227 239 249 252 254 250 255 255 253 270 251 208 165 143 162 162 177 174 172 161 169 170 167 172 174 175 179 184 184 181 186 188 193 193 199 202 199 198 197 185 186 191 192 190 191 191 188 186 182 191 183 181
256 223 206 125 209 159 153 144 304 13 30 124 103 69 251 265 25 316 24 309 202 235 240 201 170 6 241 232 226 280 262 258 207 217 223 224 237 247 258 257 256 262 262 250 260 194 189 184 182 190 186 172 181 186 178 175 174 175 178 180 182 191 185 186 185 191 194 197 203 201 201 203 195 195 196 198 197 192 193 190 186 183 192 184 189 192
274 284 162 213 62 217 134 187 238 328 216 133 172 172 125 252 242 255 272 258 297 289 258 158 159 244 275 294 213 249 253 239 207 216 226 221 222 233 247 262 271 278 299 233 213 211 207 197 199 198 190 191 189 185 182 179 179 181 182 186 190 192 186 186 188 193 193 202 203 200 201 199 194 201 198 200 200 195 196 191 193 192 191 190 197 189
298 295 224 135 235 178 182 199 200 199 160 201 97 158 193 174 158 200 218 242 237 245 313 284 131 234 83 244 212 213 235 330 207 217 233 260 283 274 267 273 272 273 262 218 219 218 212 206 197 197 198 197 194 188 184 186 187 180 187 189 195 189 193 190 192 190 199 203 202 201 200 198 197 200 197 203 201 193 193 196 196 198 195 198 195 194
218 242 272 192 330 149 179 217 181 97 48 224 166 59 33 229 140 219 221 243 270 321 325 213 217 212 234 280 305 271 283 274 268 265 268 254 259 274 276 260 258 260 289 240 235 248 243 218 207 204 200 202 197 190 187 190 188 192 198 196 197 197 192 193 191 198 201 202 198 199 200 202 198 200 200 203 200 200 196 195 195 196 197 197 188 186
262 264 299 213 45 182 201 151 194 153 211 233 107 195 213 150 155 254 314 269 94 359 256 205 291 275 309 278 243 244 246 260 268 265 261 255 241 244 253 269 266 300 330 320 291 291 294 263 225 212 203 196 195 192 195 194 192 197 197 197 200 199 191 196 201 203 201 199 195 203 204 198 199 200 200 202 200 199 193 194 198 194 195 186 185 183
238 262 86 154 245 313 45 313 11 354 131 109 191 233 113 131 114 162 215 333 239 235 263 282 261 273 9 282 342 21 29 265 266 249 242 250 279 277 262 272 298 307 279 269 250 235 231 244 250 236 218 204 200 203 204 206 205 206 202 203 202 197 198 203 201 200 199 199 202 203 203 203 203 202 204 200 198 190 185 195 193 189 184 194 182 174
203 260 261 270 109 296 335 33 328 18 54 145 191 280 133 248 257 261 93 234 237 243 265 235 274 276 239 263 309 291 278 292 289 300 346 302 288 265 283 272 263 266 288 266 256 249 236 221 218 215 214 207 207 210 216 220 215 215 214 212 207 209 211 207 203 204 208 204 206 206 205 204 204 205 204 201 192 182 192 194 193 191 191 170 172 171
13 289 295 333 113 323 19 97 226 213 327 87 12 311 109 121 206 157 199 188 196 252 249 253 242 264 248 213 223 233 248 250 261 318 274 241 252 260 244 267 276 274 256 270 260 247 247 244 224 207 204 202 206 207 208 205 202 221 220 212 219 222 213 202 203 201 206 207 208 209 206 207 207 205 201 197 189 191 197 196 190 187 179 184 167 176
282 212 264 229 336 338 256 191 214 156 183 239 242 269 312 222 222 133 298 176 213 249 234 271 255 261 273 198 226 249 229 231 204 226 287 305 255 228 230 237 258 258 260 259 255 249 243 245 242 227 213 215 211 205 198 203 209 213 198 215 215 212 211 213 214 203 210 203 210 207 205 206 202 202 198 195 195 197 198 193 188 186 183 158 182 171
339 305 252 302 275 230 254 164 190 200 197 204 193 215 216 217 248 247 251 181 211 227 251 255 256 255 281 223 230 269 250 205 222 265 317 301 301 298 287 270 235 277 263 246 251 254 257 251 252 249 222 207 202 212 209 210 210 212 209 213 210 211 215 216 214 210 212 204 207 205 211 207 201 197 193 198 196 200 196 191 186 180 166 182 179 175
132 202 261 257 247 265 286 288 199 230 238 243 200 242 220 230 221 226 250 233 285 245 317 258 288 243 280 287 218 237 243 264 277 240 256 267 273 281 280 295 300 249 256 264 251 250 244 248 258 227 205 204 209 214 213 206 206 211 214 211 207 206 217 212 216 215 215 210 207 208 209 202 197 195 197 197 199 201 195 189 180 174 179 179 177 178
123 185 176 255 264 282 283 291 293 202 217 289 261 232 210 235 218 242 254 234 248 271 295 266 256 260 245 261 272 266 270 222 257 219 232 254 262 263 270 280 280 287 277 264 267 269 268 303 254 232 234 226 220 218 214 212 213 218 217 213 210 214 221 216 218 211 206 207 211 210 201 201 200 193 197 200 201 199 192 183 180 175 179 178 172 176
227 226 152 274 286 274 284 323 289 314 115 202 205 228 223 239 242 254 305 64 248 226 236 244 252 249 239 251 269 279 283 279 272 272 262 267 272 266 262 263 260 262 268 274 268 260 253 244 231 228 227 226 229 229 226 221 220 216 217 210 213 220 221 217 216 211 213 212 211 203 201 203 196 197 199 202 198 198 187 185 177 176 178 172 175 177
226 180 161 219 245 266 267 245 240 252 225 221 217 255 236 217 234 251 252 226 245 227 234 240 255 245 259 258 271 274 273 273 271 265 267 264 266 279 276 258 260 257 256 258 262 276 250 251 250 253 239 232 230 228 226 223 220 219 219 218 215 219 220 216 210 211 212 213 212 208 204 201 195 200 201 200 197 194 188 182 177 176 177 173 173 170
234 191 198 223 233 247 248 256 236 172 145 233 234 225 235 225 224 226 239 245 242 246 239 237 244 258 251 255 258 261 263 266 271 275 270 273 279 264 262 263 253 254 252 254 271 281 276 265 249 244 245 238 237 229 226 224 224 222 222 226 221 220 219 213 205 209 210 211 213 212 208 200 201 202 201 198 197 190 182 180 178 175 176 174 171 169
119 226 221 229 233 237 246 249 251 231 244 242 247 242 239 238 230 230 224 241 239 259 257 233 245 250 252 250 253 258 262 266 268 271 278 276 268 270 267 257 252 258 265 277 288 273 260 255 258 256 249 238 235 233 235 232 228 224 220 226 224 219 215 207 201 208 209 209 210 214 211 206 206 201 197 192 185 181 181 176 176 179 172 168 172 175
175 241 227 236 245 242 244 251 253 256 250 251 249 250 250 248 250 247 247 249 252 246 258 255 253 255 252 243 250 255 259 259 263 274 281 281 281 275 267 273 271 265 263 258 251 249 243 242 246 255 260 251 240 239 240 242 239 232 232 233 232 214 214 204 200 207 206 207 211 214 213 209 203 194 187 184 180 177 178 180 177 174 171 175 174 174
196 244 245 234 252 246 245 244 245 251 255 255 252 253 251 253 254 254 255 252 249 253 254 258 256 255 254 256 250 253 255 261 267 272 279 285 285 280 273 270 279 287 290 264 254 248 251 254 260 265 270 276 267 253 249 245 243 233 228 232 229 216 217 187 205 205 205 207 213 213 209 201 192 189 185 181 183 184 179 175 174 173 173 175 173 169
227 229 204 243 249 247 247 249 246 243 246 252 246 245 244 249 255 252 257 258 264 264 260 256 253 256 254 257 257 257 261 265 268 270 273 276 283 285 289 301 318 325 333 315 285 284 283 284 283 281 279 275 273 263 254 250 245 241 236 239 232 218 212 190 208 205 205 211 214 208 194 189 192 184 186 187 182 176 174 175 172 171 171 171 170 170
248 289 270 273 273 257 227 249 252 250 244 246 250 251 250 247 248 247 251 245 241 249 252 257 260 260 257 252 256 258 263 267 269 274 278 281 287 307 336 1 12 7 358 351 347 343 333 317 300 291 283 279 274 268 260 255 250 245 242 240 232 226 199 193 205 205 211 215 208 194 191 191 185 184 187 177 182 178 176 167 168 172 173 171 172 174
209 266 252 275 268 260 259 258 260 258 256 241 231 235 239 241 239 243 242 249 248 255 259 256 253 254 277 312 325 329 329 320 310 300 301 330 3 13 6 1 6 3 357 351 349 348 350 345 335 320 305 292 282 274 265 257 261 256 249 245 238 210 175 201 206 210 215 213 198 197 189 184 183 186 181 184 177 171 166 170 172 174 174 180 177 165
243 248 263 266 268 283 276 268 266 264 239 245 219 220 225 239 242 246 249 248 251 242 255 263 302 12 35 34 28 344 337 326 312 341 64 63 8 358 353 354 352 351 348 349 345 343 342 343 341 336 327 312 299 291 286 280 267 263 260 254 223 176 204 197 208 207 213 205 197 191 186 183 182 184 184 174 168 167 172 175 182 181 178 169 168 176
258 268 270 272 279 289 291 288 278 247 262 276 293 278 235 246 250 253 255 256 285 346 6 20 2 356 12 29 15 341 313 307 309 81 55 44 24 5 350 345 346 345 342 339 341 339 338 335 335 336 335 332 322 312 306 300 292 284 282 260 223 213 198 203 203 207 206 198 195 181 182 183 183 182 176 174 171 173 179 182 179 176 177 177 178 178
253 256 264 259 260 271 259 257 261 256 229 125 4 24 358 346 343 339 296 10 32 19 1 3 336 331 351 7 349 335 325 308 300 132 52 32 30 5 355 342 335 336 336 333 330 329 331 331 328 325 324 322 327 326 321 308 304 295 278 261 226 219 207 202 204 210 200 197 190 188 187 183 182 178 174 173 175 178 182 182 182 180 177 174 178 180
236 251 247 264 235 257 253 256 257 284 283 262 272 10 3 351 322 321 302 76 42 15 348 341 321 336 352 348 342 334 328 318 329 285 36 13 3 357 351 337 327 325 324 323 322 317 316 315 317 316 316 324 330 328 323 313 303 294 289 274 244 218 212 196 209 210 200 199 193 193 188 183 178 178 176 177 178 184 184 182 183 179 172 173 177 176
221 232 237 252 231 231 253 256 261 258 254 56 344 286 312 290 269 258 255 199 37 9 353 340 351 327 347 350 356 340 319 338 352 351 4 352 347 342 336 333 329 320 319 319 319 317 320 320 320 322 325 326 327 329 322 321 322 320 310 301 306 242 226 211 219 211 199 203 197 191 186 182 179 180 179 179 187 187 187 181 175 176 173 176 174 179
333 251 243 244 279 284 279 281 278 287 9 80 348 313 315 313 295 297 231 197 18 356 343 1 337 355 1 359 351 351 359 355 335 333 342 339 331 334 329 324 325 321 314 316 316 316 318 320 319 317 325 333 334 332 332 329 334 342 335 335 329 300 268 250 273 268 234 249 230 200 187 183 182 184 183 188 190 183 179 178 176 166 162 172 170 172
342 298 281 254 266 257 271 269 270 278 280 5 331 327 329 315 300 178 253 167 354 352 333 355 339 355 359 1 351 356 360 337 331 323 325 320 316 316 322 320 320 322 321 317 317 313 309 310 323 330 336 336 330 326 328 332 335 335 333 330 342 289 262 281 298 283 288 188 171 177 184 192 191 189 188 190 178 172 169 160 156 162 166 167 164 161
338 329 332 277 280 287 281 275 286 276 127 7 335 336 347 319 355 341 286 331 341 344 330 329 1 356 355 354 355 349 325 318 299 301 308 311 313 315 317 314 308 311 314 316 317 324 324 324 325 322 322 323 324 326 325 330 330 321 321 324 318 277 257 263 279 148 149 138 143 152 163 159 185 187 181 169 166 156 155 162 163 159 164 161 156 152
291 213 278 251 258 253 281 291 260 297 195 38 331 30 346 28 12 241 308 6 311 312 331 7 351 360 330 341 336 302 301 301 295 293 305 310 311 311 312 315 316 311 307 307 311 321 326 322 322 323 324 326 328 327 325 328 324 312 315 320 296 277 249 221 195 166 154 162 165 164 161 161 156 154 152 146 148 156 159 152 149 158 156 154 156 162
273 299 258 272 306 302 268 277 273 267 24 17 345 356 36 74 259 265 284 267 286 308 324 338 347 333 328 320 315 301 296 299 299 302 297 301 308 309 311 314 315 315 317 321 324 324 325 321 320 321 320 322 325 324 320 324 314 312 314 312 292 298 245 252 222 188 172 164 165 168 165 160 159 155 152 155 158 158 155 147 147 151 158 157 158 165
303 285 268 254 242 271 260 245 233 19 332 309 38 306 327 267 261 197 213 264 233 94 294 303 321 302 313 302 304 307 301 297 300 300 302 301 304 307 308 309 310 313 314 314 318 323 326 320 316 315 313 314 316 316 316 318 307 304 307 301 305 325 293 284 261 225 189 183 170 155 156 155 151 146 151 156 156 158 154 155 155 156 166 165 166 169
212 171 260 275 302 276 231 276 289 307 321 307 159 301 276 241 207 221 150 212 282 281 255 297 302 307 307 305 301 303 304 304 300 307 308 308 309 312 313 314 315 317 318 319 323 327 327 323 319 317 312 311 312 312 310 307 302 299 296 292 306 281 245 243 236 221 213 196 175 163 157 153 157 157 159 162 161 161 161 160 163 167 172 169 174 174
291 297 298 322 243 252 260 256 284 304 313 309 304 298 198 214 229 173 103 293 262 251 285 284 286 300 304 305 305 300 299 308 312 313 313 316 315 312 312 312 313 314 318 322 322 325 326 322 318 317 316 315 318 316 311 301 292 289 286 289 284 248 218 215 219 221 211 193 187 180 161 158 159 162 167 168 174 175 172 169 172 172 171 175 181 180
227 222 269 242 282 292 279 268 271 290 290 286 291 307 256 217 187 197 218 239 269 281 293 275 288 298 303 309 302 299 306 313 311 310 314 317 312 309 308 307 305 310 316 317 317 322 321 321 317 314 314 311 313 315 309 303 293 280 282 286 284 268 227 219 226 230 217 206 199 185 176 175 175 174 175 175 177 178 174 176 176 175 176 181 181 183
285 198 217 251 251 235 263 273 286 276 266 282 286 276 246 246 247 256 249 261 268 295 306 299 320 306 310 305 303 313 304 303 307 310 311 308 305 303 301 301 307 310 309 310 315 318 315 314 314 312 312 307 307 312 309 302 297 291 287 284 281 265 242 236 228 225 223 215 205 200 194 192 186 179 181 184 180 179 181 187 185 184 186 184 186 182
241 333 262 243 263 264 275 282 273 275 281 272 269 247 217 201 239 279 270 263 2 337 310 308 307 298 307 288 304 301 300 299 302 304 302 298 295 295 299 305 308 306 306 310 313 317 313 312 310 307 304 301 302 307 306 308 315 318 312 302 292 263 242 242 238 234 232 215 200 208 203 202 190 196 192 194 196 200 194 186 187 195 201 203 192 189
266 249 253 271 274 265 256 260 258 286 281 270 255 251 240 200 192 264 276 199 261 276 294 295 294 295 290 291 295 296 290 294 298 305 300 294 293 295 300 302 302 304 304 305 310 310 307 306 303 304 300 294 299 302 303 308 308 306 307 309 307 287 253 250 246 236 235 215 208 207 194 202 195 194 193 190 194 193 198 225 220 222 204 192 188 193
211 242 247 238 238 256 255 253 229 237 259 263 279 267 223 345 271 246 260 267 249 229 246 281 292 297 290 281 275 283 288 287 290 296 293 289 290 296 299 302 303 302 302 308 313 313 312 309 304 299 293 295 302 307 308 305 299 296 294 297 298 295 272 258 250 243 237 219 215 206 197 198 195 189 189 187 186 184 181 171 193 206 202 189 187 190